Location: Auckland
(36.8670°S, 174.7670°E)
Time: 10:23:24
(UTC+13:00)

Cosmos 1271 Rocket - Pass Details

Date: 24 January 2019
Orbit: 498 x 547 km, 81.2° (Epoch: 18 February)

Event Time Altitude Azimuth Distance (km) Brightness Sun altitude
Rises 20:59:09 0° 183° (S) 2,739 6.9 -4.6°
Reaches altitude 10° 21:01:23 10° 178° (S) 1,843 5.9 -5.0°
Maximum altitude 21:05:21 50° 101° (E) 708 3.1 -5.7°
Drops below altitude 10° 21:09:17 10° 24° (NNE) 1,826 5.0 -6.3°
Enters shadow 21:11:11 - 19° (NNE) 2,587 5.8 -6.7°
